Погода в Алтамире

Бразилия     3°11′04″S   52°11′57″W
темп.,
°C
ветер,
м/с
пор.,
м/с
влажн.,
%
обл.,
%
осадки,
мм/ч
давл.,
гПа
погр.,
м
27 февраля, сб
сб2700:00+23ссв1298100 0.0 101133
03:00+22св129894 0.1 100988
06:00+22св119979 0.0 101031
09:00+24св259279 0.0 1011487
12:00+29св356469 0.1 10111362
15:00+29ссв466539 0.2 10061108
18:00+26ссв278024 0.0 1006505
21:00+23ссв149146 0.0 1009140
28 февраля, вс
вс2800:00+23св1393100 0.1 1010111
03:00+22св1299100 1.1 100879
06:00+22св179994 0.0 1008250
09:00+25св279186 0.1 1010541
12:00+26всв369236 2.9 1009774
15:00+29всв356728 4.3 10051111
18:00+26св259155 1.2 1005228
21:00+23ссв129377 1.3 100724
1 марта, пн
пн100:00+22св1399100 5.3 1008139
03:00+22ссв1799100 5.7 1006319
06:00+22ссв1799100 0.3 1007332
09:00+23ссв1498100 0.3 1009345
12:00+26св249381 3.0 1009633
15:00+27ссв249170 8.9 1005701
18:00+26с129379 1.9 1005258
21:00+23з119886 5.6 100826
2 марта, вт
вт200:00+23ссз0199100 4.5 100924
03:00+22св1599100 6.3 1007166
06:00+22ссв15100100 2.1 1008253
09:00+23ссв169995 2.3 1011384
12:00+25в2596100 1.6 1011707
15:00+23вюв1496100 2.8 1008403
18:00+24юв1394100 0.0 1007409
21:00+22вюв1298100 0.0 101027
3 марта, ср
ср300:00+22вюв1195100 0.0 101227
03:00+22вюв1298100 0.2 101080
06:00+22юв119997 0.0 101030
09:00+23ююв119698 0.0 1013129
12:00+28всв257183 0.1 10121036
15:00+29св257082 1.0 10081350
18:00+26всв129491 2.4 100963
21:00+23ссв249694 4.5 1012145